Pagina principale
METAR-TAF:

METAR-TAF

Aeroporti :

Le Luc, Francia

latitudine: 43-23N, longitudine: 006-23E, altezza: 80 m

Osservazione

Il bollettino è stato emesso 32 minuti fa, alle 00:00 UTC
Vento 17 kt da ovest
Temperature 17°C
Umidità 45%
Pressione 1011 hPa
Visibilità 10 km o più

METAR: LFMC 160000Z AUTO 27017KT 9999 ////// 17/05 Q1011

Ora: 02:32 (00:32 UTC)


TAF: mancante

Osservazioni e previsioni meteorologiche di più di 4000 aeroporti (messaggi METAR e TAF).

Le stazioni disponibili sono rappresentate dai dischi gialli e rossi sulla carta.

Puntare il mouse per vedere il nome della stazione.

Clicca sopra per visualizzare le osservazioni e previsioni meteorologiche.

Per cambiare la mappa : fare clic sui pulsanti verdi con una croce nera per ingrandire, il pulsante verde con un trattino per diminuire, o sulla freccia verde per le mappe adiacenti.


METAR-TAF: